Location: Gensac
(43.2177°N, 1.1313°E)
Time: 22:10:39
(UTC+00:00)

Cosmos 1980 Rocket - Pass Details

Date: 08 December 2025
Orbit: 830 x 847 km, 71.0° (Epoch: 21 January)

Event Time Altitude Azimuth Distance (km) Brightness Sun altitude
Exits shadow 04:14:09 51° 126° (SE) 1,033 2.8 -32.0°
Drops below altitude 10° 04:18:23 10° 148° (SSE) 2,428 5.0 -31.3°
Sets 04:20:49 0° 150° (SSE) 3,358 5.7 -30.8°
